Meteo Giornale » Osservazioni meteo Croazia » Pula Aerodrome

ore: 21:30 - Osservazioni Meteo Pula Aerodrome
Lat. 45° 54' N Lon. 13° 55' E Alt. 63 metri s.l.m.

nuvoloso Europe/Zagreb

19 °C

Nuvoloso

Temp. 24 Ore

18 °C

22 °C

Est/Nord-Est

16.7 Km/h

Dew point 18 °C

Umidità 93 %

Visibilità  10 Km

Il sole sorge alle ore 06:43

Il sole tramonta alle ore 19:13

Data e Ora Cielo e Fenomeni T °C DP °C Um. % Pres. hPa Vis. km Vento km/h
Ieri h: 21:30 nuvoloso Nuvoloso 19 18 93 1013 10 E/NE 16.7
Ieri h: 20:30 poco_nuvoloso Poco Nuvoloso 18 17 93 1012 10 E 9.3
Ieri h: 20:00 poco_nuvoloso Poco Nuvoloso 18 17 93 1011 10 N 5.5
Ieri h: 19:30 poco_nuvoloso Poco Nuvoloso 19 18 93 1011 10 E 7.4
Ieri h: 19:00 nuvoloso Nuvoloso 20 18 88 1011 10 E 7.4
Ieri h: 18:30 molto_nuvoloso Molto Nuvoloso 21 18 82 1011 10 E/SE 7.4
Ieri h: 18:00 molto_nuvoloso Molto Nuvoloso 21 18 82 1011 10 E 7.4
Ieri h: 17:30 molto_nuvoloso Molto Nuvoloso 21 18 82 1011 10 E/SE 11.1
Ieri h: 17:00 molto_nuvoloso Molto Nuvoloso 22 18 78 1011 10 E 11.1
Ieri h: 16:30 nuvoloso Nuvoloso 22 18 78 1010 10 E/SE 9.3
Ieri h: 16:00 molto_nuvoloso Molto Nuvoloso 22 18 78 1011 10 N 5.5
Ieri h: 15:30 molto_nuvoloso Molto Nuvoloso 22 19 83 1011 10 N 5.5
Ieri h: 15:00 molto_nuvoloso Molto Nuvoloso 21 18 82 1011 10 E/SE 9.3
Ieri h: 14:30 coperto_pioggia Pioggia Debole 22 18 78 1011 10 N 5.5
Ieri h: 13:30 molto_nuvoloso Molto Nuvoloso 22 18 78 1011 10 E/SE 7.4
Ieri h: 13:00 molto_nuvoloso Molto Nuvoloso 21 17 77 1011 10 E/SE 9.3
Ieri h: 12:30 molto_nuvoloso Molto Nuvoloso 22 18 78 1011 10 E 11.1
Ieri h: 12:00 molto_nuvoloso Molto Nuvoloso 22 18 78 1011 10 N 3.7
Ieri h: 11:30 molto_nuvoloso Molto Nuvoloso 22 18 78 1011 10 E/NE 7.4
Ieri h: 10:30 molto_nuvoloso Molto Nuvoloso 21 18 82 1011 10 NE 9.3
Ieri h: 10:00 molto_nuvoloso Molto Nuvoloso 20 18 88 1011 10 NE 11.1
Ieri h: 09:30 molto_nuvoloso Molto Nuvoloso 20 18 88 1010 10 N/NE 13
Ieri h: 09:00 nuvoloso Nuvoloso 20 18 88 1010 10 N 14.8
Ieri h: 08:30 molto_nuvoloso Molto Nuvoloso 21 20 94 1010 10 N 5.5
Ieri h: 07:30 coperto_pioggia Pioggia Debole 21 20 94 1010 10 N 3.7
Ieri h: 07:00 molto_nuvoloso Molto Nuvoloso 20 20 100 1010 10 N 0
Ieri h: 06:30 nuvoloso Nuvoloso 21 20 94 1010 10 N 3.7
Ieri h: 06:00 molto_nuvoloso Molto Nuvoloso 21 20 94 1010 10 N 3.7
Ieri h: 05:30 molto_nuvoloso Molto Nuvoloso 22 21 94 1010 10 E/SE 7.4
Ieri h: 05:00 molto_nuvoloso Molto Nuvoloso 22 21 94 1011 10 E/SE 9.3
Ieri h: 04:30 molto_nuvoloso Molto Nuvoloso 21 21 100 1011 10 E 9.3
Ieri h: 04:00 molto_nuvoloso Molto Nuvoloso 21 20 94 1011 10 E 13
Ieri h: 03:30 nuvoloso Nuvoloso 21 20 94 1012 10 E 13
Ieri h: 02:00 coperto_pioggia Pioggia Debole 21 19 88 1013 10 E 14.8